Location: Maddington
(51.2000°N, 1.9167°W)
Time: 22:07:33
(UTC+00:00)

NOSS 3-2 (A) - Pass Details

Date: 26 January 2021
Orbit: 783 x 1425 km, 63.4° (Epoch: 07 March)

Event Time Altitude Azimuth Distance (km) Brightness Sun altitude
Exits shadow 03:55:55 - 150° (SSE) 3,069 6.2 -36.8°
Reaches altitude 10° 03:58:51 10° 127° (SE) 2,499 6.0 -36.4°
Maximum altitude 04:01:06 12° 103° (ESE) 2,393 6.1 -36.0°
Drops below altitude 10° 04:03:27 10° 80° (E) 2,638 6.5 -35.7°
Sets 04:07:52 0° 53° (NE) 3,741 7.4 -35.0°
